Location: Unspecified
(0.0000°N, 0.0000°E)
Time: 19:18:59
(UTC+00:00)

BEESAT 3 - Visible Passes

Search period start: 21 July 2018 00:00
Search period end: 31 July 2018 00:00
Orbit: 503 x 513 km, 64.9° (Epoch: 20 July)

Date Brightness Start Highest point End Pass type
(mag) Time Alt. Az. Time Alt. Az. Time Alt. Az.
21 Jul ? 05:32:24 10° SW 05:35:59 36° WNW 05:39:34 10° N visible
22 Jul ? 05:15:12 17° SW 05:17:47 38° WNW 05:21:24 10° N visible
23 Jul ? 04:58:30 32° WSW 04:59:35 40° WNW 05:03:14 10° N visible
24 Jul ? 04:41:45 41° NW 04:41:45 41° NW 04:45:04 10° N visible
25 Jul ? 04:24:56 26° NNW 04:24:56 26° NNW 04:26:53 10° N visible
26 Jul ? 04:08:01 14° N 04:08:01 14° N 04:08:43 10° N visible
